STARLINK-37023, 68076

Orbit data source: Space-Track

STARLINK-37023, 68076 is a payload satellite owned by SpaceX/Seattle (US) in LEO that was launched on Wed, 04 Mar 2026 UTC via an FALCON 9 launch vehicle from the Air Force Eastern Test Range (AFETR). Payload-class satellites include a variety of spacecraft equipped with specific instruments for various scientific and technological missions. These include communications satellites like Starlink; space stations such as the ISS; scientific satellites like the Hubble; Earth observation satellites from companies like Planet Labs, Umbra, and HawkEye 360; GPS; miniature CubeSats for education and research; and military/defense satellites.

Loading next visibility...
Identifier
68076, 2026-042H
Orbit
LEO
Country
Flag of USUS
Related business
Manufacturer
SpaceX/Seattle
Mission
Operational spacecraft
Bus & Motor
STARLINK V2MO, Unknown motor
Mass
575 kg wet, ~530 kg dry
Launch date (UTC)
2026-03-04 (1 month ago)
Launch vehicle
FALCON 9
Launch site
Air Force Eastern Test Range (AFETR)
Object type
Payload
Rocket body
Debris
Shape & HBR
Unknown shape, 17.7 m
Radar Cross Section
RCS unknown

Expand to show TLE details & history
Last TLE update: 12 hours ago

TLE from 12 hours ago
0 STARLINK-37023
1 68076U 26042H   26102.09243756  .00182857  00000-0  11692-2 0  9990
2 68076  53.1579  28.2972 0002033  30.4016 329.7121 15.75281921  7352
Epoch: 2026-04-12T02:13Z
TLE epoch observation values (Epoch: 2026-04-12T02:13:06.605Z)
Latitude
-0.00008°
Longitude
154.71727°
Altitude
343.566 km
Speed
7.705 km/s
True Right ascension
01h 53m 11s
True Declination
0° 00' 00"
Sunlit
Object was in daylight at epoch
Visualization orbit readout
Latitude
Unknown
Longitude
Unknown
Altitude
Unknown
Speed
Unknown
Apparent Right ascension
Unknown
Apparent Declination
Unknown
Sunlit
N/A
Visualization observer readout
Local Sidereal Time
20:33:38
Azimuth
Unknown
Elevation
Unknown
Doppler factor
Unknown
Orbital elements
Apogee altitude
345.457 km
Perigee altitude
342.724 km
Semi-major axis
6,722.228 km
Eccentricity
0.0002
Inclination
53.1579°
RAAN
28.2972°
Arg. of periapsis
30.4016°
True anomaly
329.70035°
Mean anomaly
329.7121°
Eccentric anomaly
329.70622°
Mean motion
3.93798 °/min
Orbital period
91.42 mins
BSTAR
0.0011692
Loading maneuver chart data...
Computing Atmospheric mass density...
Loading historical data...
Loading historical data...
Loading historical data...
Loading historical data...
Loading historical data...
Loading historical data...
Loading historical data...

Documentation

Showing up to 5 results
|